This is the latest recevied weather packets stored in our database for station/object KO4T-4. If no packets are shown the sender has not sent any weather packets the latest 10 day(s).
| Time | Temp. | Humidity | Pressure | Rain* | Wind** | Luminosity | Snow |
|---|---|---|---|---|---|---|---|
| 1778002503 | 24.44° C | 39% | 1016.1 hPa | 0 mm | - | - | - |
| 1778002203 | 24.44° C | 39% | 1016.2 hPa | 0 mm | - | - | - |
| 1778001902 | 24.44° C | 38% | 1016.1 hPa | 0 mm | - | - | - |
| 1778001603 | 24.44° C | 39% | 1016.1 hPa | 0 mm | - | - | - |
| 1778001303 | 25° C | 39% | 1016.1 hPa | 0 mm | - | - | - |
| 1778001003 | 24.44° C | 40% | 1016 hPa | 0 mm | - | - | - |
| 1778000703 | 24.44° C | 42% | 1016.1 hPa | 0 mm | - | - | - |
| 1778000403 | 24.44° C | 41% | 1016 hPa | 0 mm | - | - | - |
| 1778000102 | 24.44° C | 41% | 1016 hPa | 0 mm | - | - | - |
| 1777999803 | 24.44° C | 41% | 1016.2 hPa | 0 mm | - | - | - |
| 1777999503 | 24.44° C | 40% | 1016.3 hPa | 0 mm | - | - | - |
| 1777999202 | 24.44° C | 40% | 1016.4 hPa | 0 mm | - | - | - |
| 1777998903 | 24.44° C | 39% | 1016.4 hPa | 0 mm | - | - | - |
| 1777998603 | 24.44° C | 40% | 1016.2 hPa | 0 mm | - | - | - |
| 1777998303 | 23.89° C | 42% | 1016.3 hPa | 0 mm | - | - | - |
| 1777998003 | 24.44° C | 39% | 1016.3 hPa | 0 mm | - | - | - |
| 1777997703 | 23.89° C | 41% | 1016.3 hPa | 0 mm | - | - | - |
| 1777997403 | 23.89° C | 40% | 1016.4 hPa | 0 mm | - | - | - |
| 1777997102 | 23.89° C | 40% | 1016.5 hPa | 0 mm | - | - | - |
| 1777996803 | 23.89° C | 40% | 1016.5 hPa | 0 mm | - | - | - |
| 1777996502 | 23.89° C | 41% | 1016.5 hPa | 0 mm | - | - | - |
| 1777996203 | 23.89° C | 40% | 1016.6 hPa | 0 mm | - | - | - |
| 1777995903 | 23.33° C | 40% | 1016.6 hPa | 0 mm | - | - | - |
| 1777995603 | 23.33° C | 42% | 1016.7 hPa | 0 mm | - | - | - |
| 1777995303 | 23.33° C | 42% | 1016.6 hPa | 0 mm | - | - | - |
* Rain latest hour (hover to see other rain measurements)
** Current wind speed in m/s (hover to see current wind gust speed)